Location: *
(47.7167°N, 1.7333°W)
Time: 09:22:09
(UTC+00:00)

H-2A R/B - Pass Details

Date: 09 April 2020
Orbit: 734 x 837 km, 98.2° (Epoch: 23 May)

Event Time Altitude Azimuth Distance (km) Brightness Sun altitude
Rises 19:56:44 0° 178° (S) 3,286 5.0 -11.6°
Reaches altitude 10° 19:59:08 10° 183° (S) 2,345 4.3 -11.9°
Maximum altitude 20:04:11 53° 260° (W) 944 2.8 -12.7°
Drops below altitude 10° 20:09:08 10° 337° (NNW) 2,298 5.3 -13.4°
Sets 20:11:28 0° 343° (NNW) 3,214 6.0 -13.8°
